Tracking 28915 objects as of 29-May-2024
HD Live streaming from Space Station
objects crossing your sky now

SL-16 DEB

Track SL-16 DEB now!
10-day predictions


NORAD ID: 24284
Int'l Code: 1995-058G
Perigee: 824.5 km
Apogee: 843.1 km
Inclination: 70.9 °
Period: 101.4 minutes
Semi major axis: 7204 km
RCS: 0.041 m2 (small)
Launch date: October 31, 1995
Source: Commonwealth of Independent States (former USSR) (CIS)
Launch site: TYURATAM MISSILE AND SPACE COMPLEX (TTMTR)

Note: This is SATELLITE DEBRIS
Your satellite tracking list
Your tracking list is empty




NASA's NSSDC Master Catalog

Two Line Element Set (TLE):
1 24284U 95058G   24149.56416587  .00000162  00000-0  10011-3 0  9994
2 24284  70.8622 199.9389 0012902 194.8978 165.1767 14.19614302477311
Source of the keplerian elements: AFSPC